This is the latest recevied weather packets stored in our database for station/object KY0TEQ-13. If no packets are shown the sender has not sent any weather packets the latest 10 day(s).
| Time | Temp. | Humidity | Pressure | Rain* | Wind** | Luminosity | Snow |
|---|---|---|---|---|---|---|---|
| 1778014327 | 15.56° C | 22% | 1294.8 hPa | 0 mm | - | 789 W/m² | - |
| 1778014022 | 15.56° C | 23% | 1294.9 hPa | 0 mm | - | 265 W/m² | - |
| 1778013721 | 15.56° C | 23% | 1294.9 hPa | 0 mm | - | 791 W/m² | - |
| 1778013418 | 15.56° C | 23% | 1295 hPa | 0 mm | - | 780 W/m² | - |
| 1778013114 | 14.44° C | 24% | 1295.1 hPa | 0 mm | - | 327 W/m² | - |
| 1778012810 | 14.44° C | 23% | 1295.1 hPa | 0 mm | - | 286 W/m² | - |
| 1778012506 | 15° C | 23% | 1295.1 hPa | 0 mm | - | 905 W/m² | - |
| 1778012203 | 14.44° C | 22% | 1295.1 hPa | 0 mm | - | 992 W/m² | - |
| 1778011901 | 15° C | 22% | 1295.3 hPa | 0 mm | - | 382 W/m² | - |
| 1778011599 | 14.44° C | 22% | 1295.5 hPa | 0 mm | - | 415 W/m² | - |
| 1778011295 | 15° C | 22% | 1295.3 hPa | 0 mm | - | 394 W/m² | - |
| 1778010991 | 14.44° C | 22% | 1295.4 hPa | 0 mm | - | 323 W/m² | - |
| 1778010689 | 15.56° C | 22% | 1295.1 hPa | 0 mm | - | 684 W/m² | - |
| 1778010381 | 15.56° C | 23% | 1295.4 hPa | 0 mm | - | 888 W/m² | - |
| 1778010076 | 14.44° C | 23% | 1295.3 hPa | 0 mm | - | 928 W/m² | - |
| 1778009773 | 14.44° C | 24% | 1295.6 hPa | 0 mm | - | 525 W/m² | - |
| 1778009470 | 13.89° C | 25% | 1295.1 hPa | 0 mm | - | 479 W/m² | - |
| 1778009169 | 15° C | 24% | 1295.3 hPa | 0 mm | - | 542 W/m² | - |
| 1778008866 | 15° C | 24% | 1295.6 hPa | 0 mm | - | 755 W/m² | - |
| 1778008564 | 14.44° C | 24% | 1295.7 hPa | 0 mm | - | 700 W/m² | - |
| 1778008261 | 14.44° C | 25% | 1295.9 hPa | 0 mm | - | 542 W/m² | - |
| 1778007956 | 14.44° C | 23% | 1295.9 hPa | 0 mm | - | 546 W/m² | - |
| 1778007652 | 14.44° C | 25% | 1295.9 hPa | 0 mm | - | 964 W/m² | - |
| 1778007344 | 14.44° C | 24% | 1295.9 hPa | 0 mm | - | 1024 W/m² | - |
| 1778007040 | 14.44° C | 24% | 1295.9 hPa | 0 mm | - | 739 W/m² | - |
* Rain latest hour (hover to see other rain measurements)
** Current wind speed in m/s (hover to see current wind gust speed)